DAL2817 KSLC-KSEA

Flight info

Callsign DAL2817
Flight time 1h 48m
Altitude 36000
Route CGULL1 TWF PDT CHINS5
Aircraft B738/M-SDE2E3FGHIRWXY/LB1

Departure

Time 2026-05-05 20:45
Airport Salt Lake City International Airport (KSLC)

Arrival

Time 2026-05-05 22:34
Airport Seattle–Tacoma International Airport (KSEA)
Time Latitude Longitude Altitude Speed Heading
2026-05-05 19:20 40.78490 -111.98875 4230 ft 0 kts 354°
2026-05-05 20:25 40.78472 -111.98873 4230 ft 4 kts 355°
2026-05-05 20:25 40.78448 -111.98864 4230 ft 4 kts 318°
2026-05-05 20:25 40.78437 -111.98837 4230 ft 4 kts 270°
2026-05-05 20:26 40.78437 -111.98822 4230 ft 1 kts 264°
2026-05-05 20:26 40.78438 -111.98821 4230 ft 0 kts 264°
2026-05-05 20:32 40.78437 -111.98832 4230 ft 5 kts 263°
2026-05-05 20:32 40.78430 -111.98915 4230 ft 13 kts 264°
2026-05-05 20:32 40.78422 -111.99044 4230 ft 14 kts 266°
2026-05-05 20:33 40.78413 -111.99164 4230 ft 12 kts 264°
2026-05-05 20:33 40.78410 -111.99267 4230 ft 10 kts 271°
2026-05-05 20:33 40.78439 -111.99340 4230 ft 10 kts 329°
2026-05-05 20:33 40.78513 -111.99357 4230 ft 12 kts 355°
2026-05-05 20:34 40.78595 -111.99360 4230 ft 11 kts
2026-05-05 20:34 40.78648 -111.99295 4230 ft 11 kts 72°
2026-05-05 20:34 40.78660 -111.99192 4230 ft 12 kts 84°
2026-05-05 20:34 40.78668 -111.99077 4230 ft 13 kts 85°
2026-05-05 20:35 40.78676 -111.98961 4230 ft 13 kts 84°
2026-05-05 20:35 40.78686 -111.98839 4230 ft 15 kts 84°
2026-05-05 20:35 40.78696 -111.98707 4230 ft 15 kts 85°
2026-05-05 20:35 40.78705 -111.98569 4230 ft 15 kts 86°
2026-05-05 20:36 40.78713 -111.98431 4230 ft 15 kts 85°
2026-05-05 20:36 40.78721 -111.98307 4230 ft 13 kts 84°
2026-05-05 20:36 40.78729 -111.98190 4230 ft 14 kts 85°
2026-05-05 20:36 40.78737 -111.98058 4230 ft 14 kts 85°
2026-05-05 20:37 40.78745 -111.97936 4230 ft 13 kts 85°
2026-05-05 20:37 40.78752 -111.97819 4230 ft 13 kts 85°
2026-05-05 20:37 40.78773 -111.97717 4230 ft 11 kts 49°
2026-05-05 20:37 40.78844 -111.97696 4230 ft 12 kts 358°
2026-05-05 20:38 40.78931 -111.97705 4230 ft 15 kts 354°
2026-05-05 20:38 40.79042 -111.97719 4230 ft 16 kts 355°
2026-05-05 20:38 40.79151 -111.97733 4229 ft 16 kts 353°
2026-05-05 20:38 40.79275 -111.97748 4230 ft 18 kts 355°
2026-05-05 20:39 40.79409 -111.97762 4230 ft 22 kts 354°
2026-05-05 20:39 40.79561 -111.97781 4229 ft 21 kts 354°
2026-05-05 20:39 40.79700 -111.97796 4230 ft 19 kts 355°
2026-05-05 20:39 40.79824 -111.97812 4230 ft 17 kts 355°
2026-05-05 20:40 40.79945 -111.97827 4230 ft 17 kts 354°
2026-05-05 20:40 40.80058 -111.97840 4230 ft 17 kts 355°
2026-05-05 20:40 40.80184 -111.97851 4229 ft 18 kts 358°
2026-05-05 20:40 40.80301 -111.97836 4230 ft 16 kts 11°
2026-05-05 20:41 40.80402 -111.97825 4230 ft 14 kts 357°
2026-05-05 20:41 40.80493 -111.97835 4230 ft 13 kts 354°
2026-05-05 20:41 40.80577 -111.97844 4229 ft 11 kts 356°
2026-05-05 20:41 40.80650 -111.97851 4230 ft 10 kts 355°
2026-05-05 20:42 40.80710 -111.97857 4230 ft 8 kts
2026-05-05 20:42 40.80719 -111.97854 4229 ft 0 kts 13°
2026-05-05 20:43 40.80723 -111.97852 4230 ft 3 kts 21°
2026-05-05 20:43 40.80745 -111.97806 4229 ft 8 kts 80°
2026-05-05 20:44 40.80727 -111.97723 4228 ft 11 kts 126°
2026-05-05 20:44 40.80679 -111.97689 4228 ft 0 kts 172°
2026-05-05 20:44 40.80665 -111.97687 4228 ft 16 kts 173°
2026-05-05 20:44 40.80293 -111.97643 4231 ft 90 kts 175°
2026-05-05 20:45 40.78253 -111.97386 4531 ft 183 kts 174°
2026-05-05 20:45 40.76923 -111.97363 5183 ft 197 kts 193°
2026-05-05 20:45 40.75672 -111.98198 5609 ft 220 kts 222°
2026-05-05 20:46 40.74867 -112.00003 5956 ft 241 kts 256°
2026-05-05 20:46 40.74953 -112.02246 6285 ft 254 kts 290°
2026-05-05 20:46 40.75934 -112.04190 6597 ft 258 kts 313°
2026-05-05 20:46 40.77239 -112.05828 6936 ft 262 kts 317°
2026-05-05 20:47 40.78628 -112.07441 7496 ft 270 kts 318°
2026-05-05 20:47 40.80053 -112.09102 8028 ft 279 kts 317°
2026-05-05 20:47 40.81528 -112.10849 8514 ft 289 kts 317°
2026-05-05 20:47 40.83011 -112.12636 9089 ft 289 kts 317°
2026-05-05 20:48 40.84488 -112.14449 9673 ft 291 kts 316°
2026-05-05 20:48 40.85933 -112.16244 10218 ft 279 kts 316°
2026-05-05 20:48 40.87337 -112.17996 10796 ft 277 kts 316°
2026-05-05 20:48 40.88745 -112.19755 11386 ft 280 kts 315°
2026-05-05 20:49 40.90193 -112.21565 11796 ft 295 kts 315°
2026-05-05 20:49 40.91730 -112.23485 12184 ft 311 kts 315°
2026-05-05 20:49 40.93337 -112.25494 12548 ft 325 kts 316°
2026-05-05 20:49 40.95017 -112.27594 12916 ft 339 kts 316°
2026-05-05 20:50 40.96754 -112.29765 13280 ft 351 kts 316°
2026-05-05 20:50 40.97951 -112.31263 13523 ft 358 kts 316°
2026-05-05 20:50 41.00403 -112.34332 13996 ft 364 kts 316°
2026-05-05 20:50 41.02239 -112.36632 14330 ft 362 kts 316°
2026-05-05 20:51 41.04066 -112.38923 14716 ft 359 kts 316°
2026-05-05 20:51 41.05873 -112.41191 15247 ft 359 kts 317°
2026-05-05 20:51 41.07789 -112.43342 15699 ft 364 kts 325°
2026-05-05 20:51 41.09945 -112.45158 16163 ft 368 kts 328°
2026-05-05 20:52 41.12110 -112.46923 16629 ft 372 kts 328°
2026-05-05 20:52 41.14310 -112.48745 17162 ft 374 kts 328°
2026-05-05 20:52 41.16510 -112.50589 17727 ft 374 kts 327°
2026-05-05 20:52 41.18654 -112.52583 18229 ft 377 kts 323°
2026-05-05 20:53 41.20731 -112.54717 18709 ft 380 kts 322°
2026-05-05 20:53 41.22818 -112.56892 19177 ft 383 kts 322°
2026-05-05 20:53 41.24935 -112.59072 19710 ft 386 kts 323°
2026-05-05 20:53 41.27069 -112.61256 20253 ft 388 kts 322°
2026-05-05 20:54 41.29069 -112.63691 20743 ft 392 kts 314°
2026-05-05 20:54 41.30912 -112.66394 21226 ft 395 kts 313°
2026-05-05 20:54 41.32748 -112.69135 21685 ft 398 kts 312°
2026-05-05 20:54 41.34600 -112.71892 22142 ft 401 kts 313°
2026-05-05 20:55 41.36475 -112.74657 22581 ft 404 kts 313°
2026-05-05 20:55 41.37722 -112.76486 22862 ft 406 kts 313°
2026-05-05 20:55 41.39635 -112.79287 23281 ft 408 kts 313°
2026-05-05 20:55 41.41545 -112.82115 23697 ft 411 kts 312°
2026-05-05 20:56 41.43436 -112.84986 24099 ft 414 kts 312°
2026-05-05 20:56 41.45329 -112.87890 24486 ft 416 kts 312°
2026-05-05 20:56 41.47227 -112.90812 24893 ft 418 kts 312°
2026-05-05 20:56 41.49135 -112.93750 25277 ft 420 kts 312°
2026-05-05 20:57 41.51669 -112.97648 25784 ft 422 kts 313°
2026-05-05 20:57 41.52979 -112.99662 26031 ft 423 kts 313°
2026-05-05 20:57 41.54882 -113.02588 26386 ft 425 kts 313°
2026-05-05 20:57 41.56850 -113.05614 26750 ft 426 kts 314°
2026-05-05 20:58 41.58796 -113.08609 27089 ft 427 kts 314°
2026-05-05 20:58 41.60743 -113.11608 27425 ft 429 kts 314°
2026-05-05 20:58 41.62711 -113.14642 27731 ft 431 kts 315°
2026-05-05 20:58 41.64642 -113.17621 28026 ft 433 kts 315°
2026-05-05 20:59 41.66650 -113.20723 28321 ft 434 kts 315°
2026-05-05 20:59 41.68630 -113.23787 28640 ft 435 kts 315°
2026-05-05 20:59 41.70582 -113.26811 28938 ft 436 kts 316°
2026-05-05 20:59 41.72564 -113.29883 29261 ft 436 kts 316°
2026-05-05 21:00 41.74538 -113.32947 29674 ft 433 kts 316°
2026-05-05 21:00 41.76496 -113.35993 30135 ft 430 kts 317°
2026-05-05 21:00 41.78439 -113.39017 30558 ft 427 kts 317°
2026-05-05 21:00 41.80374 -113.42029 30876 ft 426 kts 317°
2026-05-05 21:01 41.82309 -113.45042 31180 ft 426 kts 317°
2026-05-05 21:01 41.84239 -113.48050 31517 ft 425 kts 317°
2026-05-05 21:01 41.86161 -113.51049 31833 ft 423 kts 317°
2026-05-05 21:01 41.88076 -113.54042 32147 ft 422 kts 318°
2026-05-05 21:02 41.89985 -113.57028 32486 ft 421 kts 318°
2026-05-05 21:02 41.91893 -113.60015 32798 ft 420 kts 318°
2026-05-05 21:02 41.93791 -113.62991 33090 ft 419 kts 318°
2026-05-05 21:02 41.95688 -113.65966 33360 ft 419 kts 318°
2026-05-05 21:03 41.97580 -113.68937 33658 ft 418 kts 318°
2026-05-05 21:03 41.99466 -113.71902 33965 ft 416 kts 319°
2026-05-05 21:03 42.01334 -113.74843 34266 ft 414 kts 318°
2026-05-05 21:03 42.03195 -113.77774 34539 ft 413 kts 318°
2026-05-05 21:04 42.05080 -113.80745 34691 ft 415 kts 318°
2026-05-05 21:04 42.06960 -113.83707 34792 ft 417 kts 318°
2026-05-05 21:04 42.08844 -113.86683 34996 ft 418 kts 317°
2026-05-05 21:04 42.10721 -113.89655 35284 ft 416 kts 317°
2026-05-05 21:05 42.12569 -113.92582 35461 ft 416 kts 317°
2026-05-05 21:05 42.14452 -113.95563 35602 ft 418 kts 317°
2026-05-05 21:05 42.16334 -113.98547 35811 ft 417 kts 317°
2026-05-05 21:05 42.18215 -114.01529 35900 ft 419 kts 316°
2026-05-05 21:06 42.22003 -114.07510 35908 ft 419 kts 317°
2026-05-05 21:06 42.25773 -114.13473 35918 ft 416 kts 317°
2026-05-05 21:07 42.29524 -114.19420 35909 ft 414 kts 317°
2026-05-05 21:07 42.33248 -114.25338 35909 ft 412 kts 317°
2026-05-05 21:08 42.36935 -114.31208 35919 ft 411 kts 317°
2026-05-05 21:08 42.40638 -114.37115 35916 ft 411 kts 317°
2026-05-05 21:09 42.44331 -114.43018 35916 ft 411 kts 317°
2026-05-05 21:09 42.48043 -114.48932 35922 ft 410 kts 319°
2026-05-05 21:10 42.52104 -114.54299 35920 ft 407 kts 323°
2026-05-05 21:10 42.56256 -114.59534 35917 ft 408 kts 323°
2026-05-05 21:11 42.60386 -114.64771 35918 ft 409 kts 323°
2026-05-05 21:11 42.64532 -114.70076 35916 ft 410 kts 323°
2026-05-05 21:12 42.68673 -114.75402 35915 ft 410 kts 323°
2026-05-05 21:12 42.72817 -114.80748 35916 ft 410 kts 322°
2026-05-05 21:13 42.76944 -114.86085 35907 ft 409 kts 322°
2026-05-05 21:13 42.81055 -114.91410 35913 ft 407 kts 322°
2026-05-05 21:14 42.85144 -114.96715 35913 ft 405 kts 322°
2026-05-05 21:14 42.89183 -115.01966 35913 ft 403 kts 322°
2026-05-05 21:15 42.93239 -115.07248 35909 ft 402 kts 322°
2026-05-05 21:15 42.97273 -115.12512 35905 ft 401 kts 322°
2026-05-05 21:16 43.01297 -115.17771 35907 ft 401 kts 322°
2026-05-05 21:16 43.05326 -115.23048 35909 ft 400 kts 323°
2026-05-05 21:17 43.09354 -115.28334 35901 ft 401 kts 323°
2026-05-05 21:17 43.13358 -115.33597 35896 ft 401 kts 322°
2026-05-05 21:18 43.17383 -115.38901 35891 ft 402 kts 322°
2026-05-05 21:18 43.21409 -115.44214 35878 ft 402 kts 322°
2026-05-05 21:19 43.25424 -115.49526 35906 ft 400 kts 322°
2026-05-05 21:19 43.29441 -115.54846 35893 ft 401 kts 322°
2026-05-05 21:20 43.33460 -115.60182 35897 ft 403 kts 322°
2026-05-05 21:20 43.37494 -115.65548 35894 ft 403 kts 322°
2026-05-05 21:21 43.41106 -115.70362 35893 ft 404 kts 322°
2026-05-05 21:21 43.45128 -115.75732 35893 ft 404 kts 322°
2026-05-05 21:22 43.49169 -115.81138 35898 ft 404 kts 322°
2026-05-05 21:22 43.53164 -115.86494 35901 ft 403 kts 322°
2026-05-05 21:23 43.57172 -115.91878 35902 ft 402 kts 322°
2026-05-05 21:23 43.61171 -115.97260 35889 ft 401 kts 322°
2026-05-05 21:24 43.65147 -116.02622 35882 ft 399 kts 322°
2026-05-05 21:24 43.69105 -116.07967 35891 ft 398 kts 322°
2026-05-05 21:25 43.73054 -116.13314 35888 ft 397 kts 322°
2026-05-05 21:25 43.76997 -116.18660 35891 ft 397 kts 322°
2026-05-05 21:26 43.80934 -116.24009 35894 ft 397 kts 322°
2026-05-05 21:26 43.84874 -116.29372 35902 ft 397 kts 322°
2026-05-05 21:27 43.88821 -116.34755 35906 ft 399 kts 322°
2026-05-05 21:27 43.92767 -116.40148 35897 ft 401 kts 322°
2026-05-05 21:28 43.96754 -116.45608 35900 ft 401 kts 322°
2026-05-05 21:28 44.00726 -116.51060 35911 ft 402 kts 322°
2026-05-05 21:29 44.04675 -116.56490 35904 ft 403 kts 322°
2026-05-05 21:29 44.08651 -116.61969 35908 ft 402 kts 322°
2026-05-05 21:30 44.12624 -116.67454 35900 ft 402 kts 322°
2026-05-05 21:30 44.16582 -116.72931 35914 ft 401 kts 321°
2026-05-05 21:31 44.20532 -116.78406 35904 ft 400 kts 321°
2026-05-05 21:31 44.24474 -116.83880 35903 ft 399 kts 321°
2026-05-05 21:32 44.28396 -116.89339 35905 ft 399 kts 321°
2026-05-05 21:32 44.32300 -116.94783 35912 ft 398 kts 321°
2026-05-05 21:33 44.36239 -117.00285 35908 ft 398 kts 321°
2026-05-05 21:33 44.40145 -117.05754 35914 ft 397 kts 321°
2026-05-05 21:34 44.44008 -117.11172 35917 ft 397 kts 321°
2026-05-05 21:34 44.47922 -117.16673 35936 ft 397 kts 321°
2026-05-05 21:35 44.51825 -117.22170 35936 ft 398 kts 321°
2026-05-05 21:35 44.55733 -117.27685 35930 ft 399 kts 321°
2026-05-05 21:36 44.59646 -117.33219 35954 ft 399 kts 321°
2026-05-05 21:36 44.63568 -117.38775 35961 ft 401 kts 321°
2026-05-05 21:37 44.67494 -117.44350 35964 ft 402 kts 321°
2026-05-05 21:37 44.71399 -117.49906 35968 ft 402 kts 321°
2026-05-05 21:38 44.75331 -117.55514 35979 ft 403 kts 321°
2026-05-05 21:38 44.79270 -117.61140 35972 ft 404 kts 321°
2026-05-05 21:39 44.83209 -117.66781 35971 ft 404 kts 321°
2026-05-05 21:39 44.87140 -117.72421 35972 ft 404 kts 321°
2026-05-05 21:40 44.91070 -117.78072 35971 ft 403 kts 321°
2026-05-05 21:40 44.94986 -117.83714 35966 ft 402 kts 321°
2026-05-05 21:41 44.98891 -117.89351 35971 ft 401 kts 321°
2026-05-05 21:41 45.02784 -117.94983 35971 ft 400 kts 321°
2026-05-05 21:42 45.06669 -118.00613 35962 ft 400 kts 321°
2026-05-05 21:42 45.10550 -118.06251 35955 ft 399 kts 320°
2026-05-05 21:43 45.14422 -118.11886 35969 ft 399 kts 320°
2026-05-05 21:43 45.18272 -118.17501 35970 ft 400 kts 320°
2026-05-05 21:44 45.22156 -118.23178 35966 ft 402 kts 320°
2026-05-05 21:44 45.26049 -118.28878 35972 ft 402 kts 320°
2026-05-05 21:45 45.29288 -118.33633 35969 ft 403 kts 320°
2026-05-05 21:45 45.33186 -118.39366 35992 ft 403 kts 320°
2026-05-05 21:46 45.37071 -118.45091 35992 ft 403 kts 320°
2026-05-05 21:46 45.40955 -118.50826 36010 ft 402 kts 320°
2026-05-05 21:47 45.44837 -118.56570 36006 ft 403 kts 320°
2026-05-05 21:47 45.48718 -118.62325 36008 ft 403 kts 320°
2026-05-05 21:48 45.52599 -118.68093 36007 ft 403 kts 320°
2026-05-05 21:48 45.56476 -118.73866 35989 ft 403 kts 320°
2026-05-05 21:49 45.60352 -118.79652 35977 ft 403 kts 320°
2026-05-05 21:49 45.64227 -118.85448 35965 ft 403 kts 320°
2026-05-05 21:50 45.68099 -118.91251 35960 ft 403 kts 320°
2026-05-05 21:50 45.71897 -118.97169 35963 ft 405 kts 317°
2026-05-05 21:51 45.75530 -119.03327 35957 ft 406 kts 316°
2026-05-05 21:51 45.79132 -119.09488 35952 ft 406 kts 316°
2026-05-05 21:52 45.84601 -119.18788 35939 ft 406 kts 316°
2026-05-05 21:53 45.88251 -119.24989 35933 ft 406 kts 316°
2026-05-05 21:53 45.91894 -119.31188 35935 ft 406 kts 316°
2026-05-05 21:54 45.95541 -119.37409 35933 ft 407 kts 316°
2026-05-05 21:54 45.99180 -119.43631 35937 ft 407 kts 316°
2026-05-05 21:55 46.02818 -119.49865 35939 ft 407 kts 316°
2026-05-05 21:55 46.06455 -119.56111 35939 ft 407 kts 315°
2026-05-05 21:56 46.10078 -119.62348 35934 ft 407 kts 315°
2026-05-05 21:56 46.13723 -119.68637 35930 ft 407 kts 315°
2026-05-05 21:57 46.17356 -119.74918 35935 ft 408 kts 315°
2026-05-05 21:57 46.20985 -119.81207 35921 ft 408 kts 315°
2026-05-05 21:58 46.24618 -119.87518 35916 ft 409 kts 315°
2026-05-05 21:58 46.28249 -119.93839 35918 ft 409 kts 315°
2026-05-05 21:59 46.31853 -120.00128 35915 ft 409 kts 315°
2026-05-05 21:59 46.35477 -120.06465 35921 ft 407 kts 315°
2026-05-05 22:00 46.39053 -120.12740 35916 ft 400 kts 315°
2026-05-05 22:00 46.42577 -120.18932 35864 ft 400 kts 315°
2026-05-05 22:00 46.44366 -120.22077 35550 ft 399 kts 315°
2026-05-05 22:01 46.46118 -120.25166 35139 ft 395 kts 315°
2026-05-05 22:01 46.47853 -120.28230 34757 ft 391 kts 315°
2026-05-05 22:01 46.49575 -120.31272 34354 ft 388 kts 315°
2026-05-05 22:01 46.51284 -120.34293 33955 ft 384 kts 315°
2026-05-05 22:02 46.52970 -120.37275 33563 ft 381 kts 315°
2026-05-05 22:02 46.54646 -120.40243 33174 ft 379 kts 314°
2026-05-05 22:02 46.56309 -120.43192 32766 ft 376 kts 314°
2026-05-05 22:02 46.57916 -120.46182 32373 ft 375 kts 311°
2026-05-05 22:03 46.59428 -120.49273 31976 ft 373 kts 310°
2026-05-05 22:03 46.60874 -120.52336 31597 ft 371 kts 310°
2026-05-05 22:03 46.62324 -120.55428 31215 ft 369 kts 310°
2026-05-05 22:03 46.63762 -120.58488 30832 ft 365 kts 310°
2026-05-05 22:04 46.65199 -120.61532 30462 ft 363 kts 310°
2026-05-05 22:04 46.66628 -120.64546 30087 ft 361 kts 310°
2026-05-05 22:04 46.68049 -120.67540 29718 ft 358 kts 310°
2026-05-05 22:04 46.69462 -120.70513 29328 ft 356 kts 310°
2026-05-05 22:05 46.70871 -120.73478 28890 ft 355 kts 310°
2026-05-05 22:05 46.72263 -120.76413 28504 ft 352 kts 310°
2026-05-05 22:05 46.73660 -120.79360 28122 ft 350 kts 310°
2026-05-05 22:05 46.75038 -120.82272 27746 ft 348 kts 310°
2026-05-05 22:06 46.76410 -120.85171 27353 ft 346 kts 310°
2026-05-05 22:06 46.77771 -120.88050 26990 ft 344 kts 310°
2026-05-05 22:06 46.79127 -120.90921 26617 ft 343 kts 310°
2026-05-05 22:06 46.80476 -120.93781 26237 ft 341 kts 310°
2026-05-05 22:07 46.81816 -120.96626 25863 ft 339 kts 310°
2026-05-05 22:07 46.83145 -120.99452 25514 ft 336 kts 310°
2026-05-05 22:07 46.84465 -121.02262 25144 ft 334 kts 310°
2026-05-05 22:07 46.85777 -121.05056 24788 ft 333 kts 310°
2026-05-05 22:08 46.87086 -121.07846 24426 ft 331 kts 310°
2026-05-05 22:08 46.88385 -121.10618 24055 ft 330 kts 310°
2026-05-05 22:08 46.89674 -121.13373 23715 ft 327 kts 310°
2026-05-05 22:08 46.90955 -121.16111 23353 ft 325 kts 310°
2026-05-05 22:09 46.92209 -121.18797 23005 ft 323 kts 310°
2026-05-05 22:09 46.93470 -121.21498 22661 ft 320 kts 310°
2026-05-05 22:09 46.94719 -121.24176 22323 ft 317 kts 310°
2026-05-05 22:09 46.95960 -121.26839 21990 ft 315 kts 310°
2026-05-05 22:10 46.97191 -121.29483 21616 ft 314 kts 310°
2026-05-05 22:10 46.98410 -121.32103 21312 ft 311 kts 310°
2026-05-05 22:10 46.99633 -121.34737 20968 ft 310 kts 310°
2026-05-05 22:10 47.00846 -121.37351 20621 ft 310 kts 310°
2026-05-05 22:11 47.02051 -121.39949 20278 ft 308 kts 310°
2026-05-05 22:11 47.03251 -121.42541 19972 ft 306 kts 310°
2026-05-05 22:11 47.04443 -121.45112 19630 ft 305 kts 310°
2026-05-05 22:11 47.05631 -121.47682 19285 ft 304 kts 309°
2026-05-05 22:12 47.06817 -121.50249 18966 ft 303 kts 309°
2026-05-05 22:12 47.07997 -121.52808 18630 ft 302 kts 309°
2026-05-05 22:12 47.09171 -121.55354 18310 ft 302 kts 309°
2026-05-05 22:12 47.10343 -121.57899 17985 ft 301 kts 309°
2026-05-05 22:13 47.11519 -121.60454 17648 ft 301 kts 309°
2026-05-05 22:13 47.12694 -121.63009 17313 ft 301 kts 309°
2026-05-05 22:13 47.13863 -121.65554 16989 ft 301 kts 309°
2026-05-05 22:13 47.15032 -121.68102 16650 ft 301 kts 308°
2026-05-05 22:14 47.16198 -121.70647 16300 ft 299 kts 308°
2026-05-05 22:14 47.17359 -121.73182 15998 ft 298 kts 308°
2026-05-05 22:14 47.18516 -121.75708 15652 ft 298 kts 308°
2026-05-05 22:14 47.19654 -121.78198 15317 ft 296 kts 308°
2026-05-05 22:15 47.20797 -121.80703 15009 ft 293 kts 307°
2026-05-05 22:15 47.21922 -121.83169 14791 ft 289 kts 307°
2026-05-05 22:15 47.23037 -121.85615 14558 ft 285 kts 307°
2026-05-05 22:15 47.24131 -121.88015 14354 ft 280 kts 307°
2026-05-05 22:16 47.25218 -121.90404 13798 ft 287 kts 307°
2026-05-05 22:16 47.26318 -121.92821 13418 ft 283 kts 307°
2026-05-05 22:16 47.27401 -121.95205 13103 ft 278 kts 306°
2026-05-05 22:16 47.28477 -121.97572 12784 ft 278 kts 306°
2026-05-05 22:17 47.29551 -121.99939 12467 ft 278 kts 306°
2026-05-05 22:17 47.30625 -122.02310 12146 ft 278 kts 306°
2026-05-05 22:17 47.31700 -122.04683 11827 ft 278 kts 305°
2026-05-05 22:17 47.32771 -122.07049 11513 ft 277 kts 305°
2026-05-05 22:18 47.33839 -122.09411 11200 ft 277 kts 305°
2026-05-05 22:18 47.34909 -122.11780 10886 ft 277 kts 304°
2026-05-05 22:18 47.35975 -122.14140 10573 ft 276 kts 304°
2026-05-05 22:18 47.37231 -122.16228 10240 ft 274 kts 326°
2026-05-05 22:19 47.38963 -122.17342 9966 ft 272 kts 347°
2026-05-05 22:19 47.40804 -122.17777 9609 ft 270 kts 352°
2026-05-05 22:19 47.42658 -122.18110 9233 ft 266 kts 352°
2026-05-05 22:19 47.44476 -122.18433 8972 ft 258 kts 352°
2026-05-05 22:20 47.46210 -122.18655 8824 ft 247 kts
2026-05-05 22:20 47.47901 -122.18478 8788 ft 239 kts
2026-05-05 22:20 47.49561 -122.18274 8619 ft 240 kts
2026-05-05 22:20 47.51226 -122.18065 8370 ft 240 kts
2026-05-05 22:21 47.52904 -122.17856 7985 ft 242 kts
2026-05-05 22:21 47.54574 -122.17651 7611 ft 239 kts
2026-05-05 22:21 47.56198 -122.17450 7338 ft 232 kts
2026-05-05 22:21 47.57791 -122.17254 7069 ft 224 kts
2026-05-05 22:22 47.59309 -122.17068 6793 ft 213 kts
2026-05-05 22:22 47.60743 -122.16678 6508 ft 211 kts 25°
2026-05-05 22:22 47.61947 -122.15443 6298 ft 211 kts 35°
2026-05-05 22:22 47.63134 -122.14132 6053 ft 215 kts 35°
2026-05-05 22:23 47.64341 -122.12804 5811 ft 218 kts 35°
2026-05-05 22:23 47.65555 -122.11470 5556 ft 216 kts 35°
2026-05-05 22:23 47.66754 -122.10152 5300 ft 213 kts 35°
2026-05-05 22:23 47.67935 -122.08852 5073 ft 210 kts 35°
2026-05-05 22:24 47.69115 -122.07550 5026 ft 212 kts 35°
2026-05-05 22:24 47.70298 -122.06246 4990 ft 210 kts 35°
2026-05-05 22:24 47.71454 -122.04970 4991 ft 210 kts 35°
2026-05-05 22:24 47.72761 -122.04076 4978 ft 207 kts
2026-05-05 22:25 47.74136 -122.04459 4990 ft 203 kts 328°
2026-05-05 22:25 47.75061 -122.05961 4993 ft 200 kts 292°
2026-05-05 22:25 47.75333 -122.08001 5009 ft 205 kts 276°
2026-05-05 22:25 47.75463 -122.10116 5001 ft 207 kts 275°
2026-05-05 22:26 47.75585 -122.12261 4993 ft 209 kts 275°
2026-05-05 22:26 47.75343 -122.14320 4975 ft 204 kts 239°
2026-05-05 22:26 47.74526 -122.15973 5004 ft 193 kts 237°
2026-05-05 22:26 47.73821 -122.17652 4999 ft 192 kts 242°
2026-05-05 22:27 47.73193 -122.19422 5004 ft 195 kts 245°
2026-05-05 22:27 47.72615 -122.21256 4996 ft 197 kts 247°
2026-05-05 22:27 47.72066 -122.23121 4998 ft 197 kts 248°
2026-05-05 22:27 47.71531 -122.25010 4992 ft 198 kts 249°
2026-05-05 22:28 47.71014 -122.26871 4990 ft 198 kts 249°
2026-05-05 22:28 47.70454 -122.28768 4984 ft 199 kts 239°
2026-05-05 22:28 47.69364 -122.29996 4888 ft 206 kts 197°
2026-05-05 22:28 47.67933 -122.30318 4627 ft 208 kts 189°
2026-05-05 22:29 47.66563 -122.30570 4356 ft 195 kts 185°
2026-05-05 22:29 47.65222 -122.30626 4091 ft 184 kts 181°
2026-05-05 22:29 47.63994 -122.30629 3881 ft 170 kts 182°
2026-05-05 22:29 47.62837 -122.30635 3656 ft 165 kts 181°
2026-05-05 22:30 47.61710 -122.30644 3443 ft 164 kts 182°
2026-05-05 22:30 47.60563 -122.30654 3219 ft 164 kts 182°
2026-05-05 22:30 47.59429 -122.30665 3005 ft 163 kts 181°
2026-05-05 22:30 47.58295 -122.30673 2788 ft 162 kts 182°
2026-05-05 22:31 47.57176 -122.30682 2573 ft 160 kts 182°
2026-05-05 22:31 47.56067 -122.30690 2367 ft 158 kts 182°
2026-05-05 22:31 47.54971 -122.30700 2150 ft 158 kts 182°
2026-05-05 22:31 47.54247 -122.30706 2013 ft 156 kts 182°
2026-05-05 22:32 47.53167 -122.30715 1806 ft 155 kts 182°
2026-05-05 22:32 47.52092 -122.30722 1588 ft 154 kts 182°
2026-05-05 22:32 47.51021 -122.30731 1358 ft 152 kts 181°
2026-05-05 22:32 47.49969 -122.30739 1137 ft 151 kts 182°
2026-05-05 22:33 47.48920 -122.30750 918 ft 153 kts 182°
2026-05-05 22:33 47.47854 -122.30768 693 ft 153 kts 182°
2026-05-05 22:33 47.46764 -122.30772 521 ft 164 kts 181°
2026-05-05 22:33 47.45674 -122.30786 426 ft 141 kts 180°
2026-05-05 22:34 47.44905 -122.30792 425 ft 81 kts 180°
2026-05-05 22:34 47.44532 -122.30785 418 ft 37 kts 179°
2026-05-05 22:34 47.44366 -122.30768 427 ft 19 kts 155°
2026-05-05 22:34 47.44333 -122.30686 429 ft 1 kts 108°
2026-05-05 22:36 47.44332 -122.30683 429 ft 3 kts 108°
2026-05-05 22:37 47.44330 -122.30674 430 ft 0 kts 112°
2026-05-05 22:37 47.44330 -122.30673 430 ft 2 kts 115°
2026-05-05 22:37 47.44268 -122.30617 430 ft 14 kts 162°
2026-05-05 22:37 47.44178 -122.30585 419 ft 12 kts 158°
2026-05-05 22:38 47.44149 -122.30493 431 ft 8 kts 94°
2026-05-05 22:38 47.44148 -122.30449 431 ft 0 kts 91°